Date,TemperatureHighF,TemperatureAvgF,TemperatureLowF,DewpointHighF,DewpointAvgF,DewpointLowF,HumidityHigh,HumidityAvg,HumidityLow,PressureMaxIn,PressureMinIn,WindSpeedMaxMPH,WindSpeedAvgMPH,GustSpeedMaxMPH,PrecipitationSumIn
2012-1-1,34,26,20,30,20,13,86,78,69,30.37,29.80,40,15,40,0.00
2012-1-2,21,16,9,15,10,5,87,74,65,30.56,30.35,33,8,33,0.00
2012-1-3,26,18,9,21,14,6,94,83,73,30.48,29.88,24,4,24,0.00
2012-1-4,38,30,23,33,26,21,96,87,76,30.12,29.93,13,2,14,0.00
2012-1-5,49,35,20,40,30,19,96,82,64,29.96,29.61,12,2,12,0.00
2012-1-6,46,42,36,34,31,26,81,66,52,29.88,29.61,28,7,28,0.00
2012-1-7,40,30,22,31,25,19,91,79,64,30.22,29.88,26,4,26,0.00
2012-1-8,41,29,16,30,24,13,93,82,63,30.30,30.05,18,2,18,0.00
2012-1-9,50,38,26,33,28,23,91,69,51,30.05,29.88,21,5,21,0.00
2012-1-10,53,36,23,36,29,20,95,78,52,29.95,29.62,15,2,15,0.00
2012-1-11,41,26,12,37,21,4,94,82,67,29.93,29.58,34,12,34,0.01
2012-1-12,15,13,10,10,7,4,84,77,70,29.97,29.88,25,14,27,0.00
2012-1-13,13,9,6,7,4,2,87,81,69,30.06,29.96,17,3,19,0.00
2012-1-14,25,17,8,23,14,5,92,87,79,30.12,30.03,12,1,12,0.00
2012-1-15,43,30,17,31,25,15,95,82,61,30.12,29.70,21,4,21,0.00
2012-1-16,30,24,16,27,18,10,93,78,63,30.05,29.70,27,9,30,0.00
2012-1-17,16,10,-1,10,3,-5,85,73,56,30.33,30.03,24,9,24,0.00
2012-1-18,27,9,-5,19,3,-12,86,77,68,30.27,29.72,30,8,30,0.00
2012-1-19,5,-4,-12,-8,-14,-18,76,64,45,30.27,30.05,20,4,23,0.00
2012-1-20,11,5,-7,6,0,-11,85,81,61,30.32,30.19,7,0,7,0.00
2012-1-21,23,6,-12,20,2,-17,89,83,77,30.31,29.78,26,6,26,0.00
2012-1-22,25,24,21,24,22,19,95,92,87,29.79,29.54,26,6,26,0.00
2012-1-23,26,23,20,25,21,17,95,91,87,29.96,29.53,24,8,24,0.00
2012-1-24,24,20,14,21,17,11,92,88,80,30.31,29.96,14,3,14,0.00
2012-1-25,32,28,23,31,26,21,94,91,84,30.29,29.82,20,5,20,0.01
2012-1-26,39,33,22,32,27,18,95,79,68,29.83,29.69,26,6,26,0.00
2012-1-27,36,26,14,35,22,11,100,85,71,29.96,29.69,33,6,33,0.01
2012-1-28,29,22,16,22,16,12,91,78,65,30.02,29.93,19,4,19,0.00
2012-1-29,23,16,10,21,10,5,92,77,65,30.23,29.94,16,4,16,0.00
2012-1-30,41,29,20,32,24,16,95,82,71,29.94,29.59,17,2,17,0.00
2012-1-31,42,32,21,36,29,19,96,90,78,30.00,29.54,18,4,21,0.00
2012-2-1,35,32,30,34,32,29,98,97,94,30.11,29.99,13,3,13,0.00
2012-2-2,32,29,22,32,28,21,100,97,94,30.43,30.11,10,2,10,0.00
2012-2-3,33,31,27,32,30,25,98,97,91,30.51,30.42,14,5,14,0.00
2012-2-4,29,26,23,28,25,22,97,96,95,30.49,30.42,12,5,12,0.00
2012-2-5,30,28,27,28,27,26,96,94,93,30.38,30.20,11,4,18,0.00
2012-2-6,44,33,21,34,28,19,95,81,66,30.33,30.07,26,7,26,0.00
2012-2-7,31,22,8,26,16,5,88,77,58,30.57,30.33,19,9,25,0.00
2012-2-8,32,18,6,13,8,3,89,69,40,30.54,30.28,13,2,14,0.00
2012-2-9,41,26,14,28,18,9,86,72,52,30.28,29.89,29,7,29,0.00
2012-2-10,24,10,3,16,-2,-7,73,59,45,30.64,30.05,30,14,31,0.00
2012-2-11,19,9,0,4,-3,-9,76,58,42,30.70,30.55,27,8,27,0.00
2012-2-12,33,18,4,8,4,-2,87,56,30,30.56,30.09,18,3,18,0.00
2012-2-13,31,26,18,26,19,7,92,74,58,30.09,29.73,17,3,17,0.00
2012-2-14,35,27,18,29,24,16,95,88,77,29.79,29.68,17,3,17,0.00
2012-2-15,31,31,31,28,28,28,89,89,89,29.80,29.79,5,2,6,0.00
2012-2-16,39,32,22,26,23,19,93,70,53,30.12,30.03,28,4,28,0.00
2012-2-17,37,30,23,29,22,16,90,73,58,30.19,29.94,26,6,26,0.00
2012-2-18,37,25,12,23,17,9,91,72,48,30.28,30.16,15,2,15,0.00
2012-2-19,44,30,13,27,22,10,95,72,45,30.17,30.02,24,4,24,0.00
2012-2-20,43,34,28,33,27,23,96,77,52,30.06,29.61,31,8,31,0.01
2012-2-21,35,33,26,33,29,22,97,88,77,29.61,29.49,24,7,24,0.00
2012-2-22,33,26,15,26,21,12,93,83,71,29.56,29.41,13,1,13,0.00
2012-2-23,34,28,20,29,25,18,94,85,76,29.73,29.42,17,3,17,0.00
2012-2-24,30,23,14,28,17,8,95,77,66,30.12,29.73,30,9,30,0.00
2012-2-25,26,17,7,21,11,3,92,78,68,30.28,30.04,19,4,19,0.00
2012-2-26,35,29,25,31,23,18,88,79,72,30.04,29.59,26,9,26,0.00
2012-2-27,28,22,17,21,17,12,92,80,67,30.45,30.03,22,6,22,0.00
2012-2-28,35,30,22,32,27,18,95,88,79,30.35,29.60,19,5,19,0.01
2012-2-29,34,33,33,32,32,32,98,96,95,29.60,29.24,0,0,0,0.00
2012-3-1,35,33,29,32,30,27,95,90,86,29.80,29.71,14,4,14,0.00
2012-3-2,34,29,20,32,24,18,95,83,70,29.74,29.62,28,7,28,0.00
2012-3-3,24,19,10,20,14,6,94,81,73,29.92,29.63,25,8,25,0.00
2012-3-4,26,15,2,18,10,-1,90,82,68,30.16,29.91,13,2,13,0.00
2012-3-5,35,23,7,31,20,4,93,86,75,30.23,29.83,24,6,25,0.00
2012-3-6,51,40,29,43,34,25,95,79,67,29.83,29.51,16,3,16,0.00
2012-3-7,45,36,25,42,32,20,93,85,76,30.01,29.50,23,9,23,0.00
2012-3-8,38,28,21,30,20,9,90,74,56,30.45,30.01,34,9,34,0.00
2012-3-9,33,24,13,25,14,7,78,65,52,30.63,30.10,19,5,19,0.00
2012-3-10,60,46,33,46,35,25,77,65,55,30.10,29.86,20,5,20,0.00
2012-3-11,60,49,38,50,40,32,83,70,60,29.93,29.73,22,4,23,0.00
2012-3-12,51,46,42,48,44,38,98,93,83,29.86,29.59,19,3,20,0.07
2012-3-13,64,47,30,48,39,29,98,77,48,30.02,29.77,21,4,21,0.01
2012-3-14,69,55,42,53,45,33,92,71,40,29.89,29.66,18,4,19,0.00
2012-3-15,62,50,38,44,36,26,87,59,47,30.03,29.89,15,3,15,0.00
2012-3-16,78,55,35,63,47,30,89,75,57,29.95,29.73,20,3,20,0.00
2012-3-17,75,65,57,64,60,55,94,83,67,29.73,29.64,27,6,27,0.00
2012-3-18,77,69,63,63,61,59,90,77,59,29.69,29.57,29,9,30,0.00
2012-3-19,78,67,60,64,60,59,96,81,57,29.64,29.47,33,9,34,0.84
2012-3-20,61,58,53,59,55,51,97,92,83,29.89,29.62,13,3,14,0.04
2012-3-21,60,55,51,56,53,50,98,94,84,30.04,29.83,13,3,13,0.07
2012-3-22,62,58,54,61,57,53,97,96,93,30.04,29.90,15,4,15,0.31
2012-3-23,69,60,55,61,57,54,99,90,67,29.92,29.83,14,2,14,0.02
2012-3-24,68,56,50,59,53,44,99,90,68,30.05,29.86,22,4,22,0.01
2012-3-25,50,48,47,44,43,41,82,81,79,30.07,30.05,19,12,19,0.00
2012-3-26,48,41,38,35,33,28,77,71,51,30.24,29.84,33,11,33,0.03
2012-3-27,64,53,42,52,43,35,84,70,48,29.85,29.52,36,12,36,0.03
2012-3-28,52,44,37,40,37,34,89,75,60,30.05,29.79,21,7,22,0.00
2012-3-29,60,49,36,46,39,33,92,71,52,30.05,29.74,23,6,23,0.01
2012-3-30,57,50,44,50,46,42,94,87,73,29.84,29.72,14,3,14,0.00
2012-3-31,52,47,43,49,46,41,96,94,91,29.83,29.69,22,5,23,0.00
2012-4-1,68,56,48,49,46,41,96,74,40,29.72,29.51,24,6,26,0.00
2012-4-2,68,59,51,51,45,39,67,59,52,29.78,29.56,30,9,30,0.00
2012-4-3,64,54,46,45,37,26,85,56,26,30.08,29.78,29,14,29,0.00
2012-4-4,63,51,38,32,29,26,68,45,26,30.08,29.91,19,5,19,0.00
2012-4-5,60,49,38,36,30,24,71,50,32,30.15,29.97,13,4,18,0.00
2012-4-6,60,49,32,33,30,27,86,51,28,30.23,30.01,25,6,25,0.00
2012-4-7,58,51,45,46,35,26,93,56,38,30.16,29.95,28,7,31,0.00
2012-4-8,61,48,31,33,27,22,80,46,24,30.20,30.03,29,6,29,0.00
2012-4-9,44,40,29,29,23,20,74,51,41,30.18,30.05,33,8,33,0.00
2012-4-10,43,33,22,24,20,17,94,61,37,30.33,30.18,21,8,28,0.00
2012-4-11,53,38,22,25,21,17,92,53,28,30.42,30.20,14,2,14,0.00
2012-4-12,63,47,25,31,26,21,91,50,24,30.21,29.97,22,4,22,0.00
2012-4-13,56,56,56,30,29,29,36,36,35,29.97,29.96,13,4,13,0.00
2012-4-14,74,66,44,54,49,40,97,57,32,29.77,29.53,22,4,22,0.00
2012-4-15,62,53,46,56,52,44,97,94,75,29.55,29.18,31,10,32,1.25
2012-4-16,46,39,34,44,34,30,96,82,65,30.20,29.25,35,13,35,0.07
2012-4-17,58,46,30,49,39,28,96,78,62,30.29,29.90,23,4,23,0.09
2012-4-18,58,53,46,51,47,40,94,80,63,29.99,29.74,22,7,23,0.10
2012-4-19,47,45,41,41,35,29,86,67,57,30.03,29.92,21,8,21,0.00
2012-4-20,58,46,33,39,32,26,84,59,38,30.10,29.98,20,4,20,0.00
2012-4-21,48,46,43,44,41,37,93,83,69,29.98,29.82,28,5,28,0.23
2012-4-22,51,46,38,44,42,36,96,87,72,30.23,29.93,13,4,13,0.02
2012-4-23,67,49,32,47,40,31,98,74,40,30.21,29.81,15,2,15,0.00
2012-4-24,72,60,47,50,46,43,89,62,37,29.81,29.50,18,2,18,0.00
2012-4-25,72,62,52,56,52,46,88,70,53,29.75,29.46,26,6,26,0.06
2012-4-26,59,50,40,50,34,24,83,57,30,30.13,29.75,27,9,27,0.00
2012-4-27,54,48,40,34,30,25,78,50,36,30.16,29.97,26,5,26,0.00
2012-4-28,52,44,40,42,36,24,96,74,40,30.20,29.93,23,5,23,0.22
2012-4-29,56,50,43,47,44,42,95,83,69,30.21,29.99,16,4,16,0.00
2012-4-30,68,55,48,53,47,44,94,77,44,29.99,29.75,13,2,16,0.00
2012-5-1,75,62,55,63,57,50,95,84,64,29.75,29.45,30,8,30,0.50
2012-5-2,78,67,56,66,60,55,97,79,52,29.70,29.47,23,2,24,0.01
2012-5-3,75,65,57,64,59,54,96,83,56,29.88,29.62,26,5,27,0.41
2012-5-4,69,58,50,57,52,48,95,82,63,29.95,29.80,25,10,25,0.08
2012-5-5,59,55,51,56,52,48,97,92,83,30.04,29.81,22,7,22,0.20
2012-5-6,65,58,51,61,56,50,100,93,84,29.97,29.76,28,5,28,1.32
2012-5-7,65,56,49,54,47,42,98,73,45,29.97,29.86,25,4,25,0.01
2012-5-8,61,54,48,51,47,44,92,79,57,29.95,29.82,20,5,21,0.05
2012-5-9,64,57,46,49,43,39,89,63,41,30.05,29.91,15,3,15,0.00
2012-5-10,74,60,45,52,47,42,92,65,44,29.91,29.74,14,4,22,0.00
2012-5-11,66,59,47,55,49,40,94,70,45,30.20,29.70,28,7,28,0.02
2012-5-12,65,51,43,46,40,28,96,71,26,30.35,30.20,14,1,14,0.00
2012-5-13,74,63,39,48,41,33,97,50,25,30.25,30.00,16,3,20,0.00
2012-5-14,86,71,51,53,46,40,83,44,21,30.00,29.74,20,4,20,0.00
2012-5-15,72,65,52,50,42,35,70,46,29,30.04,29.73,26,8,27,0.00
2012-5-16,71,57,40,45,39,30,100,54,26,30.15,29.96,13,2,13,0.00
2012-5-17,88,71,56,54,48,40,57,46,30,29.97,29.61,45,10,45,0.00
2012-5-18,91,76,66,63,56,52,70,52,32,29.68,29.57,36,8,36,0.34
2012-5-19,82,72,57,66,60,54,91,67,49,29.83,29.63,26,9,26,0.80
2012-5-20,63,56,48,55,50,44,95,84,52,30.15,29.77,27,9,27,0.28
2012-5-21,74,61,44,57,49,42,100,69,37,30.22,30.02,16,1,16,0.00
2012-5-22,84,71,58,57,50,44,64,49,36,30.02,29.55,32,8,32,0.00
2012-5-23,75,68,59,67,56,49,90,67,43,29.57,29.32,33,6,33,0.40
2012-5-24,62,59,56,60,57,53,97,93,80,29.65,29.37,15,6,25,1.49
2012-5-25,65,59,49,58,52,46,95,79,61,30.06,29.66,8,2,23,0.00
2012-5-26,64,60,56,61,58,54,96,92,82,30.14,29.80,19,5,32,0.30
2012-5-27,86,77,62,74,70,61,96,80,65,29.78,29.46,33,7,35,0.86
2012-5-28,76,67,59,65,59,45,97,76,48,29.70,29.50,25,6,25,0.36
2012-5-29,62,56,52,51,47,42,78,70,62,29.92,29.67,25,7,25,0.00
2012-5-30,58,53,47,50,44,42,86,71,57,30.01,29.91,17,5,18,0.00
2012-5-31,65,57,48,50,45,40,92,67,42,30.03,29.95,13,3,16,0.00
2012-6-1,71,58,43,52,44,36,98,64,31,29.96,29.74,12,1,12,0.00
2012-6-2,75,63,48,55,50,45,97,67,39,29.75,29.70,18,3,18,0.00
2012-6-3,76,65,51,60,55,50,97,71,45,29.79,29.72,17,2,17,0.00
2012-6-4,83,70,56,61,57,52,97,68,36,29.89,29.77,16,2,16,0.00
2012-6-5,82,69,56,62,57,51,96,69,35,29.95,29.88,6,2,19,0.00
2012-6-6,82,72,58,62,59,56,93,64,43,29.98,29.92,16,3,16,0.00
2012-6-7,81,72,62,66,62,57,87,72,57,30.02,29.89,19,4,19,0.00
2012-6-8,87,77,68,68,63,61,78,63,43,29.90,29.65,24,6,24,0.00
2012-6-9,90,80,69,63,59,56,69,51,32,29.66,29.52,27,7,27,0.00
2012-6-10,90,77,62,70,64,57,95,65,45,29.70,29.46,35,9,35,0.95
2012-6-11,69,63,54,62,54,43,96,74,51,29.97,29.60,31,7,31,0.31
2012-6-12,68,58,50,51,45,41,91,64,42,30.15,29.96,24,5,24,0.00
2012-6-13,74,66,52,57,54,49,94,66,49,30.08,29.84,22,6,24,0.01
2012-6-14,75,67,60,70,61,53,96,82,63,29.84,29.66,31,6,31,0.53
2012-6-15,78,70,60,68,63,59,98,81,53,29.96,29.83,14,1,14,0.02
2012-6-16,80,69,60,72,62,51,95,80,47,29.91,29.75,23,3,23,0.02
2012-6-17,74,66,54,67,59,52,95,79,57,29.82,29.35,25,5,25,0.01
2012-6-18,88,76,66,72,66,61,98,75,42,29.58,29.33,17,2,18,0.41
2012-6-19,90,76,64,77,70,61,95,80,64,29.70,29.46,25,7,27,0.50
2012-6-20,83,72,62,72,66,61,95,83,69,29.82,29.52,32,5,32,0.27
2012-6-21,76,67,59,62,58,56,96,76,52,29.97,29.81,22,5,22,0.00
2012-6-22,79,68,56,63,58,53,97,74,42,29.99,29.88,15,2,15,0.00
2012-6-23,78,70,63,67,63,60,94,79,59,29.90,29.79,22,3,22,0.01
2012-6-24,83,73,64,70,65,58,98,77,52,30.03,29.83,20,5,20,0.00
2012-6-25,76,68,56,58,54,49,91,64,43,30.13,29.94,19,2,19,0.00
2012-6-26,79,68,56,59,56,52,92,66,43,29.99,29.65,23,4,23,0.00
2012-6-27,90,78,69,79,68,58,93,71,60,29.67,29.54,16,2,16,0.00
2012-6-28,85,77,63,75,61,53,94,62,36,29.87,29.65,19,4,20,0.00
2012-6-29,87,74,58,71,64,57,98,74,46,29.84,29.71,3,0,12,0.00
2012-6-30,88,75,64,71,66,62,98,75,43,29.81,29.74,6,1,11,0.00
2012-7-1,89,78,66,75,71,64,96,80,56,29.84,29.75,7,2,17,0.00
2012-7-2,94,84,72,79,75,71,98,76,58,29.78,29.63,19,4,19,0.00
2012-7-3,92,82,70,81,76,68,96,82,67,29.73,29.61,22,2,24,0.39
2012-7-4,94,86,78,81,78,76,95,80,62,29.68,29.61,20,3,20,0.00
2012-7-5,87,81,72,77,70,59,93,72,41,29.88,29.68,22,4,22,0.00
2012-7-6,94,78,66,81,70,64,95,77,59,29.97,29.76,24,5,25,0.62
2012-7-7,82,72,63,68,64,59,94,77,49,30.09,29.97,21,7,21,0.01
2012-7-8,86,76,65,70,66,63,97,75,49,30.12,30.00,16,1,16,0.00
2012-7-9,82,73,62,66,62,55,98,72,42,30.09,30.04,18,4,18,0.00
2012-7-10,85,73,59,68,62,56,98,72,42,30.12,30.02,12,1,12,0.00
2012-7-11,85,74,59,66,62,57,96,69,43,30.08,29.96,15,2,15,0.00
2012-7-12,67,66,66,62,62,61,85,84,83,29.96,29.96,0,0,1,0.00
2012-7-13,87,77,67,74,69,63,97,78,58,29.91,29.84,22,3,22,0.05
2012-7-14,90,77,64,75,68,63,98,78,48,29.95,29.90,13,1,13,0.00
2012-7-15,87,78,65,75,70,64,99,79,59,29.98,29.83,14,1,14,0.00
2012-7-16,95,84,74,76,71,68,87,68,47,29.84,29.62,25,6,25,0.00
2012-7-17,89,78,70,76,72,68,97,83,59,29.83,29.66,19,5,19,0.00
2012-7-18,80,73,68,73,69,66,97,89,77,29.89,29.77,20,3,20,0.09
2012-7-19,83,73,66,72,68,65,97,86,65,30.00,29.87,13,1,13,0.00
2012-7-20,85,75,67,75,70,66,97,85,69,30.06,29.92,19,3,21,0.00
2012-7-21,84,76,70,75,71,69,96,87,69,29.99,29.88,17,2,17,0.10
2012-7-22,89,79,72,78,73,69,97,84,67,29.91,29.78,15,2,15,0.05
2012-7-23,91,80,72,76,72,66,98,77,51,29.90,29.81,17,2,17,0.00
2012-7-24,80,74,70,76,71,68,98,91,82,29.92,29.67,28,3,28,1.48
2012-7-25,85,79,74,77,74,68,95,85,73,29.67,29.51,17,3,18,0.00
2012-7-26,80,72,62,68,63,60,95,76,53,29.78,29.57,24,4,24,0.00
2012-7-27,78,68,61,68,63,60,96,84,62,30.05,29.78,13,2,13,0.00
2012-7-28,81,70,57,70,65,56,99,83,61,30.08,29.94,15,2,15,0.00
2012-7-29,82,73,68,72,69,66,97,86,67,29.97,29.86,16,2,16,0.08
2012-7-30,85,76,66,73,68,63,97,79,48,29.90,29.80,17,4,17,0.01
2012-7-31,84,73,60,72,66,60,99,80,51,29.96,29.87,7,0,8,0.00
2012-8-1,90,77,66,77,70,64,97,79,61,29.87,29.70,19,3,19,0.02
2012-8-2,86,76,66,73,67,64,95,74,48,29.81,29.74,14,1,15,0.00
2012-8-3,86,74,62,72,67,61,99,81,58,29.83,29.65,34,2,34,0.69
2012-8-4,78,69,64,65,62,58,97,81,54,29.93,29.69,20,4,20,0.09
2012-8-5,75,65,55,62,56,52,95,76,51,30.16,29.93,16,2,16,0.00
2012-8-6,84,70,55,74,63,53,96,80,58,30.07,29.86,14,2,14,0.00
2012-8-7,83,72,62,67,63,59,98,76,46,29.96,29.86,13,2,13,0.00
2012-8-8,62,62,62,60,60,60,94,94,94,29.94,29.94,0,0,0,0.00
2012-8-14,74,63,51,63,58,50,99,88,59,29.94,29.82,2,0,9,0.01
2012-8-15,81,70,58,71,65,57,96,86,70,29.82,29.62,9,3,21,0.03
2012-8-16,69,63,53,63,54,48,89,74,54,29.99,29.73,11,6,24,0.00
2012-8-17,73,58,44,55,48,43,97,73,40,30.09,29.99,4,1,13,0.00
2012-8-18,77,62,46,59,52,46,98,76,43,30.00,29.90,4,1,20,0.00
2012-8-19,75,64,51,60,55,49,96,76,44,29.99,29.93,6,2,15,0.00
2012-8-20,77,67,45,57,50,44,98,59,35,30.01,29.94,12,1,12,0.00
2012-8-21,80,63,45,61,53,44,100,73,43,30.03,29.93,14,2,14,0.00
2012-8-22,76,64,51,66,59,50,97,84,60,29.94,29.80,17,2,17,1.11
2012-8-23,80,72,65,74,66,61,94,83,71,29.83,29.67,36,4,36,1.59
2012-8-24,87,73,58,75,68,57,99,84,66,29.79,29.72,17,2,22,0.00
2012-8-25,74,70,67,69,67,65,93,89,82,29.88,29.79,10,3,23,0.00
2012-8-26,82,72,63,69,66,61,96,82,52,29.97,29.87,5,1,13,0.00
2012-8-27,82,73,54,70,63,54,98,73,47,30.09,29.98,9,0,9,0.00
2012-8-28,82,71,61,73,66,60,96,86,72,30.07,29.90,14,1,14,0.00
2012-8-29,86,74,65,74,68,63,97,82,61,29.90,29.68,15,2,15,0.00
2012-8-30,84,74,66,70,66,60,84,75,54,29.88,29.62,17,2,17,0.00
2012-8-31,81,68,54,67,57,50,97,72,37,30.07,29.88,13,2,15,0.00
2012-9-1,81,68,56,66,58,52,95,72,48,30.09,29.95,15,2,15,0.00
2012-9-2,85,70,55,74,64,53,97,81,62,29.96,29.75,21,2,21,0.00
2012-9-3,87,74,63,71,64,59,97,75,40,29.86,29.78,7,0,7,0.00
2012-9-4,86,71,57,67,60,48,98,73,27,29.83,29.68,17,2,17,0.00
2012-9-5,78,67,52,61,55,46,95,67,35,29.86,29.61,18,3,18,0.00
2012-9-6,77,61,47,62,54,46,98,81,41,29.93,29.81,13,1,13,0.02
2012-9-7,68,61,51,58,52,46,94,74,50,30.02,29.85,24,5,24,0.00
2012-9-8,74,59,44,53,48,42,97,70,39,30.02,29.80,30,6,31,0.00
2012-9-9,72,60,49,55,51,48,95,76,48,30.17,30.02,11,1,11,0.00
2012-9-10,82,66,52,55,52,47,93,63,37,30.04,29.73,30,5,30,0.00
2012-9-11,94,75,61,61,57,53,78,56,30,29.79,29.59,27,4,27,0.00
2012-9-12,68,60,55,58,50,41,88,72,44,30.19,29.79,17,3,17,0.00
2012-9-13,74,58,43,52,42,31,98,65,22,30.31,30.19,18,2,18,0.00
2012-9-14,74,58,42,49,44,38,92,64,29,30.31,30.20,12,1,12,0.00
2012-9-15,84,64,43,54,47,40,96,61,27,30.20,29.89,21,3,21,0.00
2012-9-16,80,67,58,57,52,44,89,59,38,29.93,29.80,18,4,18,0.00
2012-9-17,63,54,42,49,43,36,92,68,40,29.99,29.89,32,6,32,0.18
2012-9-18,59,48,36,44,38,34,96,71,40,30.03,29.84,13,1,17,0.00
2012-9-19,71,58,52,52,43,37,80,60,39,29.84,29.59,30,6,30,0.01
2012-9-26,64,48,35,41,37,34,97,71,37,30.20,29.94,7,2,15,0.00
2012-9-27,68,47,30,45,37,28,97,72,37,30.27,30.15,3,1,13,0.00
2012-9-28,77,54,36,48,41,34,97,68,25,30.20,30.06,4,1,12,0.00
2012-9-29,83,61,42,49,44,41,96,63,25,30.09,29.95,5,1,14,0.00
2012-9-30,77,58,41,51,46,40,100,69,34,29.99,29.83,4,1,11,0.00
2012-10-1,71,60,44,51,44,38,82,58,36,29.93,29.80,13,5,24,0.00
2012-10-2,72,59,34,48,41,32,97,55,31,29.95,29.79,19,3,19,0.00
2012-10-3,76,65,37,47,42,35,94,46,24,29.87,29.75,18,2,18,0.00
2012-10-4,66,47,41,46,36,32,83,68,44,30.15,29.68,36,12,36,0.00
2012-10-5,44,39,33,33,29,28,81,68,54,30.18,30.12,30,9,30,0.00
2012-10-6,45,37,26,31,28,22,89,70,47,30.31,30.17,22,6,22,0.00
2012-10-7,54,38,22,28,24,19,99,61,27,30.24,29.85,25,4,26,0.00
2012-10-8,64,48,35,44,34,24,81,59,40,29.85,29.55,25,4,25,0.00
2012-10-9,48,44,35,41,34,26,83,67,52,29.99,29.69,27,6,27,0.01
2012-10-10,53,42,26,33,29,23,91,62,42,30.10,29.78,20,3,21,0.00
2012-10-11,55,43,26,36,28,18,85,58,30,30.40,29.76,26,8,32,0.00
2012-10-12,53,38,19,29,21,17,93,58,26,30.44,29.98,22,5,22,0.00
2012-10-13,54,51,44,51,46,26,95,83,38,29.99,29.65,21,3,21,0.00
2012-10-14,59,49,43,46,43,41,97,82,53,29.82,29.71,26,8,26,0.00
2012-10-15,61,54,30,43,40,29,97,62,50,29.94,29.67,14,2,14,0.00
2012-10-16,71,59,48,52,47,43,90,66,49,29.67,29.30,19,1,19,0.00
2012-10-17,62,52,44,52,46,42,96,81,65,29.31,29.03,29,6,29,0.00
2012-10-18,50,46,42,46,44,41,96,90,84,29.37,29.12,13,2,13,0.01
2012-10-19,54,48,41,49,46,40,98,91,72,29.72,29.37,17,3,18,0.09
2012-10-20,50,46,38,46,44,37,98,93,83,29.79,29.70,15,2,15,0.00
2012-10-21,66,52,43,52,46,41,96,81,60,29.80,29.72,23,3,23,0.00
2012-10-22,57,54,47,49,48,43,89,77,73,29.93,29.83,23,10,24,0.00
2012-10-23,62,57,53,60,54,47,100,91,81,29.83,29.63,16,4,16,0.00
2012-10-24,57,52,46,55,50,42,98,93,84,29.84,29.74,26,6,26,0.00
2012-10-25,46,39,34,42,34,28,95,85,68,30.16,29.71,33,10,33,0.16
2012-10-26,40,36,32,29,27,25,82,70,58,30.37,30.16,25,4,25,0.10
2012-10-27,43,34,25,30,27,23,94,76,49,30.37,30.28,15,2,15,0.00
2012-10-28,44,36,26,32,29,24,92,75,59,30.34,30.26,18,2,18,0.00
2012-10-29,46,40,34,33,29,26,71,65,59,30.29,30.22,19,3,19,0.00
2012-10-30,46,42,27,35,33,17,94,71,66,30.23,30.06,14,2,14,0.00
2012-10-31,53,43,26,34,32,25,95,65,41,30.08,29.91,9,1,13,0.00
2012-11-1,44,41,40,31,29,26,70,62,49,30.06,29.91,25,5,25,0.00
2012-11-2,40,40,40,27,27,27,59,59,59,30.16,30.05,5,5,5,0.00
2012-11-3,40,40,40,27,27,27,59,59,59,30.18,30.10,5,5,5,0.00
2012-11-4,40,40,40,27,27,27,59,59,59,30.18,30.09,5,5,5,0.00
2012-11-5,0,0,0,0,0,0,0,0,100,30.14,29.88,0,0,0,0.00
2012-11-6,43,37,0,38,34,0,88,77,82,29.99,29.70,24,13,24,0.00
2012-11-7,47,44,40,39,38,35,91,80,66,30.10,29.99,16,8,16,0.00
2012-11-8,54,44,36,41,38,30,93,78,62,30.02,29.89,18,5,18,0.01
2012-11-9,49,43,37,43,39,35,94,86,77,30.04,29.88,23,10,23,0.00
2012-11-10,64,50,44,57,47,40,97,90,63,29.88,29.41,23,5,23,0.13
2012-11-11,51,30,20,50,26,13,96,84,71,29.94,29.46,11,7,22,0.00
2012-11-12,27,22,19,19,17,13,89,80,72,30.31,29.94,9,5,23,0.00
2012-11-13,42,35,14,32,27,12,92,73,59,30.36,30.26,15,2,15,0.00
2012-11-14,51,40,27,36,32,25,95,77,53,30.27,30.12,17,1,17,0.00
2012-11-15,48,36,22,37,29,16,96,74,46,30.48,30.09,18,2,19,0.00
2012-11-16,43,30,15,29,20,13,94,70,40,30.50,30.30,15,2,15,0.00
2012-11-17,57,47,35,41,37,28,84,69,54,30.30,30.12,26,8,26,0.00
2012-11-18,58,50,43,40,37,34,71,60,51,30.13,30.00,23,7,23,0.00
2012-11-19,59,49,37,43,39,34,92,71,55,30.07,29.96,15,2,16,0.00
2012-11-20,53,39,25,40,34,24,98,82,55,30.18,29.99,11,1,11,0.00
2012-11-21,60,50,37,46,40,33,87,69,54,30.00,29.61,21,3,21,0.00
2012-11-22,56,40,22,46,35,20,94,83,67,30.03,29.55,32,9,32,0.00
2012-11-23,27,20,14,20,15,10,91,79,68,30.43,30.02,36,10,36,0.00
2012-11-24,29,18,5,23,14,2,92,81,72,30.41,29.83,16,2,16,0.00
2012-11-25,31,29,23,26,24,13,84,80,65,30.19,29.84,20,6,24,0.00
2012-11-26,22,15,8,12,8,4,85,73,62,30.48,30.21,16,3,23,0.00
2012-11-27,40,26,16,29,20,10,92,77,64,30.37,30.10,16,3,17,0.00
2012-11-28,36,30,26,28,24,22,84,79,71,30.34,30.08,17,3,17,0.00
2012-11-29,38,30,19,29,25,17,94,83,69,30.13,30.04,21,7,21,0.00
2012-11-30,36,30,26,34,27,24,100,89,85,30.19,30.03,14,6,19,0.00
2012-12-1,47,38,32,43,36,31,97,92,83,30.03,29.70,20,3,20,0.00
2012-12-2,43,33,26,40,32,25,98,95,87,29.99,29.83,14,1,14,0.00
2012-12-3,54,47,41,51,42,31,97,82,58,29.90,29.53,13,8,26,0.00
2012-12-4,43,26,17,31,17,12,84,69,57,30.41,29.89,20,4,22,0.00
2012-12-5,42,29,16,30,20,12,85,68,53,30.43,29.81,27,6,27,0.00
2012-12-6,46,38,22,37,30,18,86,73,64,30.00,29.74,23,6,23,0.00
2012-12-7,30,25,19,28,23,17,94,91,82,30.08,29.99,9,1,9,0.00
2012-12-8,30,26,22,29,24,21,94,92,88,30.08,29.99,12,1,12,0.03
2012-12-9,31,28,14,30,27,11,97,95,88,30.01,29.84,28,8,28,0.00
2012-12-10,14,6,-3,11,2,-7,88,86,82,30.01,29.88,19,2,19,0.00
2012-12-11,20,7,-3,16,4,-7,92,87,82,30.06,29.85,13,0,13,0.00
2012-12-12,36,24,-3,30,20,-7,94,85,73,30.06,29.85,15,2,15,0.08
2012-12-13,34,24,12,27,20,9,94,85,73,30.15,29.89,12,2,12,0.01
2012-12-14,38,22,8,32,19,5,94,87,80,30.16,29.78,13,2,13,0.00
2012-12-15,39,36,34,36,34,32,97,94,80,29.78,29.49,11,2,12,0.27
2012-12-16,34,24,19,34,22,17,99,92,89,29.84,29.57,17,6,18,0.02
2012-12-17,24,22,21,22,20,19,95,93,91,29.83,29.70,7,0,7,0.00
2012-12-18,28,24,23,27,23,22,95,94,94,29.83,29.65,9,1,9,0.00
2012-12-19,31,25,13,28,22,11,95,89,80,30.07,29.82,14,2,14,0.02
2012-12-20,24,20,11,21,16,7,90,86,80,30.14,29.93,30,12,30,0.00
2012-12-21,17,8,3,10,4,0,89,84,72,30.33,30.13,13,1,13,0.00
2012-12-22,23,13,2,16,9,-1,92,84,72,30.24,30.03,22,2,22,0.00
2012-12-23,17,13,8,13,9,5,88,84,76,30.20,30.11,19,6,19,0.00
2012-12-24,17,12,-1,13,6,-4,89,80,68,30.35,30.07,11,6,18,0.00
2012-12-25,7,0,-7,0,-4,-11,87,81,72,30.57,30.36,3,1,9,0.00
2012-12-26,14,6,-2,6,1,-5,87,81,71,30.50,30.31,4,1,6,0.00
2012-12-27,19,12,0,17,9,-3,92,87,79,30.33,30.20,7,1,7,0.00
2012-12-28,23,16,5,19,14,2,100,90,85,30.20,30.05,7,2,7,0.01
2012-12-29,15,9,-3,13,7,-6,92,88,83,30.23,30.07,11,2,11,0.00
2012-12-30,22,5,-6,18,2,-10,89,85,81,30.25,29.94,10,1,10,0.00
2012-12-31,16,5,-10,12,-2,-14,95,74,66,30.34,30.06,14,3,19,0.00
2013-1-1,21,5,-16,19,1,-21,90,85,79,30.35,30.08,16,2,16,0.00